OK,54,48,851,54,2014-10-01T01:40:00,0,28072621,203981
OK,54,48,851,54,2014-10-01T01:45:00,0,28073068,203981
OK,54,48,851,54,2014-10-01T01:50:00,0,28073517,203981
OK,54,48,851,54,2014-10-01T01:55:00,0,28073834,203981
OK,54,48,851,54,2014-10-01T02:00:00,0,28074283,203981
OK,54,48,851,54,2014-10-01T02:05:00,0,28074725,203981
OK,54,48,851,54,2014-10-01T02:10:00,0,28075172,203981
OK,54,48,851,54,2014-10-01T02:15:00,0,28075621,203981
OK,54,48,851,54,2014-10-01T02:20:00,0,28076011,203981
OK,54,48,851,54,2014-10-01T02:25:00,0,28076453,203981
OK,54,48,851,54,2014-10-01T02:30:00,0,28076902,203981
OK,54,48,851,54,2014-10-01T02:35:00,0,28077351,203981
OK,54,48,851,54,2014-10-01T02:40:00,0,28077755,203981
OK,54,48,851,54,2014-10-01T02:45:00,0,28078203,203981
OK,54,48,851,54,2014-10-01T02:50:00,0,28078648,203981
OK,54,48,851,54,2014-10-01T02:55:00,0,28079097,203981
OK,54,48,851,54,2014-10-01T03:00:00,0,28079539,203981
OK,54,48,851,54,2014-10-01T03:05:00,0,28079988,203981
OK,54,48,851,54,2014-10-01T03:10:00,0,28080324,203981
OK,54,48,851,54,2014-10-01T03:15:00,0,28080771,203981
OK,54,48,851,54,2014-10-01T03:20:00,0,28081220,203981
OK,54,48,851,54,2014-10-01T03:25:00,0,28081667,203981
OK,54,48,851,54,2014-10-01T03:30:00,0,28082116,203981
OK,54,48,851,54,2014-10-01T03:35:00,0,28082552,203981
OK,54,48,851,54,2014-10-01T03:40:00,0,28082981,203981
OK,54,48,851,54,2014-10-01T03:45:00,0,28083430,203981
OK,54,48,851,54,2014-10-01T03:50:00,0,28083879,203981
OK,54,48,851,54,2014-10-01T03:55:00,0,28084322,203981
OK,54,48,851,54,2014-10-01T04:00:00,0,28084749,203981
OK,54,48,851,54,2014-10-01T04:05:00,0,28085194,203981
OK,54,48,851,54,2014-10-01T04:10:00,0,28085640,203981
OK,54,48,851,54,2014-10-01T04:15:00,0,28086088,203981
OK,61,43,851,61,2014-10-01T04:20:00,2,28086531,203981
OK,61,43,851,61,2014-10-01T04:25:00,2,28086979,203981
OK,84,31,851,84,2014-10-01T04:30:00,1,28087424,203981
OK,65,40,851,65,2014-10-01T04:35:00,2,28087873,203981
OK,64,41,851,64,2014-10-01T04:40:00,3,28088300,203981
OK,59,44,851,59,2014-10-01T04:45:00,2,28088746,203981
OK,65,40,851,65,2014-10-01T04:50:00,5,28089177,203981
OK,67,39,851,67,2014-10-01T04:55:00,5,28089625,203981
OK,61,43,851,61,2014-10-01T05:05:00,3,28090074,203981
OK,60,43,851,60,2014-10-01T05:10:00,3,28090867,203981
OK,61,43,851,61,2014-10-01T05:15:00,3,28091316,203981
OK,83,31,851,83,2014-10-01T05:20:00,7,28091735,203981
OK,86,30,851,86,2014-10-01T05:25:00,6,28092182,203981
OK,71,37,851,71,2014-10-01T05:30:00,4,28092627,203981
OK,67,39,851,67,2014-10-01T05:35:00,3,28093067,203981
OK,88,29,851,88,2014-10-01T05:40:00,4,28093498,203981
OK,75,35,851,75,2014-10-01T05:45:00,7,28093947,203981
OK,70,37,851,70,2014-10-01T05:50:00,6,28094361,203981
OK,75,35,851,75,2014-10-01T05:55:00,9,28094803,203981
OK,76,34,851,76,2014-10-01T06:00:00,6,28095250,203981
OK,100,26,851,100,2014-10-01T06:05:00,4,28095699,203981
OK,118,22,851,118,2014-10-01T06:10:00,5,28096113,203981
OK,77,34,851,77,2014-10-01T06:15:00,4,28096561,203981
OK,78,33,851,78,2014-10-01T06:20:00,6,28096997,203981
OK,70,37,851,70,2014-10-01T06:25:00,3,28097444,203981
OK,60,43,851,60,2014-10-01T06:30:00,3,28097893,203981
OK,61,43,851,61,2014-10-01T06:35:00,2,28098332,203981
OK,60,43,851,60,2014-10-01T06:40:00,2,28098775,203981
OK,74,35,851,74,2014-10-01T06:45:00,4,28099222,203981
OK,72,36,851,72,2014-10-01T06:50:00,4,28099567,203981
OK,118,22,851,118,2014-10-01T06:55:00,1,28100014,203981
OK,92,28,851,92,2014-10-01T07:00:00,2,28100323,203981
OK,66,39,851,66,2014-10-01T07:05:00,3,28100770,203981
OK,63,41,851,63,2014-10-01T07:10:00,3,28101142,203981
OK,63,41,851,63,2014-10-01T07:15:00,5,28101590,203981
OK,65,40,851,65,2014-10-01T07:20:00,4,28102027,203981
OK,65,40,851,65,2014-10-01T07:25:00,2,28102475,203981
OK,67,39,851,67,2014-10-01T07:30:00,1,28102907,203981
OK,59,44,851,59,2014-10-01T07:35:00,4,28103349,203981
OK,58,45,851,58,2014-10-01T07:40:00,5,28103795,203981
OK,87,30,851,87,2014-10-01T07:45:00,0,28104239,203981
OK,54,48,851,54,2014-10-01T07:50:00,3,28104681,203981
OK,59,44,851,59,2014-10-01T07:55:00,5,28105125,203981
OK,63,41,851,63,2014-10-01T08:00:00,4,28105566,203981
OK,67,39,851,67,2014-10-01T08:05:00,4,28106014,203981
OK,79,33,851,79,2014-10-01T08:10:00,4,28106451,203981
OK,66,39,851,66,2014-10-01T08:15:00,3,28106859,203981
OK,62,42,851,62,2014-10-01T08:20:00,5,28107289,203981
OK,60,43,851,60,2014-10-01T08:25:00,2,28107738,203981
OK,64,41,851,64,2014-10-01T08:30:00,12,28108177,203981
OK,69,38,851,69,2014-10-01T08:35:00,10,28108626,203981
OK,74,35,851,74,2014-10-01T08:40:00,4,28109055,203981
OK,61,43,851,61,2014-10-01T08:45:00,3,28109503,203981
OK,61,43,851,61,2014-10-01T08:50:00,1,28109847,203981
OK,58,45,851,58,2014-10-01T08:55:00,2,28110295,203981
OK,58,45,851,58,2014-10-01T09:00:00,2,28110718,203981
OK,59,44,851,59,2014-10-01T09:05:00,1,28111167,203981
OK,59,44,851,59,2014-10-01T09:10:00,1,28111596,203981
OK,55,47,851,55,2014-10-01T09:15:00,1,28112045,203981
OK,59,44,851,59,2014-10-01T09:20:00,2,28112387,203981
OK,64,41,851,64,2014-10-01T09:25:00,3,28112835,203981
OK,126,20,851,126,2014-10-01T09:30:00,2,28113260,203981
OK,70,37,851,70,2014-10-01T09:35:00,2,28113708,203981
OK,67,39,851,67,2014-10-01T09:40:00,1,28114140,203981
OK,67,39,851,67,2014-10-01T09:45:00,0,28114589,203981
OK,77,34,851,77,2014-10-01T09:50:00,2,28114944,203981
OK,72,36,851,72,2014-10-01T09:55:00,5,28115392,203981
OK,66,39,851,66,2014-10-01T10:00:00,4,28115805,203981
OK,68,38,851,68,2014-10-01T10:05:00,3,28116253,203981
OK,61,43,851,61,2014-10-01T10:10:00,2,28116662,203981
OK,60,43,851,60,2014-10-01T10:15:00,3,28117110,203981
OK,60,43,851,60,2014-10-01T10:20:00,5,28117535,203981
OK,53,49,851,53,2014-10-01T10:25:00,3,28117984,203981
OK,68,38,851,68,2014-10-01T10:30:00,5,28118429,203981
OK,62,42,851,62,2014-10-01T10:35:00,3,28118876,203981
OK,66,39,851,66,2014-10-01T10:40:00,5,28119320,203981
OK,70,37,851,70,2014-10-01T10:45:00,5,28119768,203981
OK,58,45,851,58,2014-10-01T10:50:00,4,28120216,203981
OK,64,41,851,64,2014-10-01T10:55:00,2,28120665,203981
OK,71,37,851,71,2014-10-01T11:00:00,1,28121049,203981
OK,108,24,851,108,2014-10-01T11:05:00,1,28121497,203981
OK,91,28,851,91,2014-10-01T11:10:00,2,28121936,203981
OK,66,39,851,66,2014-10-01T11:15:00,4,28122384,203981
OK,64,41,851,64,2014-10-01T11:20:00,4,28122826,203981
OK,57,46,851,57,2014-10-01T11:25:00,3,28123274,203981
OK,66,39,851,66,2014-10-01T11:30:00,4,28123707,203981
OK,66,39,851,66,2014-10-01T11:35:00,3,28124155,203981
OK,66,39,851,66,2014-10-01T11:40:00,3,28124559,203981
OK,60,43,851,60,2014-10-01T11:45:00,1,28125006,203981
OK,60,43,851,60,2014-10-01T11:50:00,0,28125435,203981
OK,72,36,851,72,2014-10-01T11:55:00,1,28125884,203981
OK,72,36,851,72,2014-10-01T12:00:00,1,28126237,203981
OK,68,38,851,68,2014-10-01T12:05:00,4,28126685,203981
OK,67,39,851,67,2014-10-01T12:10:00,3,28127134,203981
OK,66,39,851,66,2014-10-01T12:15:00,1,28127583,203981
OK,75,35,851,75,2014-10-01T12:20:00,2,28128012,203981
OK,62,42,851,62,2014-10-01T12:25:00,3,28128460,203981
OK,62,42,851,62,2014-10-01T12:30:00,3,28128895,203981
OK,60,43,851,60,2014-10-01T12:35:00,4,28129344,203981
OK,66,39,851,66,2014-10-01T12:40:00,5,28129779,203981
OK,75,35,851,75,2014-10-01T12:45:00,5,28130227,203981
OK,69,38,851,69,2014-10-01T12:50:00,5,28130656,203981
OK,61,43,851,61,2014-10-01T12:55:00,6,28131104,203981
OK,69,38,851,69,2014-10-01T13:00:00,3,28131542,203981
OK,69,38,851,69,2014-10-01T13:05:00,5,28131990,203981
OK,67,39,851,67,2014-10-01T13:10:00,3,28132429,203981
OK,61,43,851,61,2014-10-01T13:15:00,2,28132875,203981
OK,57,46,851,57,2014-10-01T13:20:00,3,28133313,203981
OK,68,38,851,68,2014-10-01T13:25:00,11,28133762,203981
OK,70,37,851,70,2014-10-01T13:30:00,10,28134201,203981
OK,60,43,851,60,2014-10-01T13:35:00,2,28134650,203981
OK,69,38,851,69,2014-10-01T13:40:00,3,28135070,203981
OK,80,32,851,80,2014-10-01T13:45:00,2,28135518,203981
OK,64,41,851,64,2014-10-01T13:50:00,7,28135955,203981
OK,64,41,851,64,2014-10-01T13:55:00,5,28136404,203981
OK,57,46,851,57,2014-10-01T14:00:00,1,28136844,203981
OK,67,39,851,67,2014-10-01T14:05:00,1,28137293,203981
OK,69,38,851,69,2014-10-01T14:10:00,4,28137727,203981
OK,68,38,851,68,2014-10-01T14:15:00,5,28138176,203981
OK,61,43,851,61,2014-10-01T14:20:00,3,28138605,203981
OK,82,32,851,82,2014-10-01T14:25:00,1,28139053,203981
OK,100,26,851,100,2014-10-01T14:30:00,2,28139465,203981
OK,76,34,851,76,2014-10-01T14:35:00,4,28139913,203981
OK,71,37,851,71,2014-10-01T14:40:00,4,28140356,203981
OK,89,29,851,89,2014-10-01T14:45:00,1,28140804,203981
OK,89,29,851,89,2014-10-01T14:50:00,1,28141231,203981
OK,57,46,851,57,2014-10-01T14:55:00,4,28141679,203981
OK,62,42,851,62,2014-10-01T15:00:00,4,28142108,203981
OK,66,39,851,66,2014-10-01T15:05:00,4,28142556,203981
OK,65,40,851,65,2014-10-01T15:10:00,5,28142984,203981
OK,72,36,851,72,2014-10-01T15:15:00,2,28143432,203981
OK,63,41,851,63,2014-10-01T15:20:00,2,28143880,203981
OK,63,41,851,63,2014-10-01T15:25:00,0,28144329,203981
OK,56,47,851,56,2014-10-01T15:30:00,3,28144752,203981
OK,59,44,851,59,2014-10-01T15:35:00,4,28145164,203981
OK,61,43,851,61,2014-10-01T15:40:00,5,28145613,203981
OK,61,43,851,61,2014-10-01T15:45:00,2,28146062,203981
OK,64,41,851,64,2014-10-01T15:50:00,2,28146511,203981
OK,64,41,851,64,2014-10-01T15:55:00,2,28146922,203981
OK,64,41,851,64,2014-10-01T16:00:00,2,28147363,203981
OK,63,41,851,63,2014-10-01T16:05:00,0,28147812,203981
OK,49,53,851,49,2014-10-01T16:10:00,1,28148214,203981
OK,49,53,851,49,2014-10-01T16:15:00,1,28148662,203981
OK,58,45,851,58,2014-10-01T16:20:00,3,28149102,203981
OK,58,45,851,58,2014-10-01T16:25:00,3,28149550,203981
OK,70,37,851,70,2014-10-01T16:30:00,1,28149977,203981
OK,70,37,851,70,2014-10-01T16:35:00,0,28150425,203981
OK,70,37,851,70,2014-10-01T16:40:00,0,28150844,203981
OK,62,42,851,62,2014-10-01T16:45:00,3,28151292,203981
OK,62,42,851,62,2014-10-01T16:50:00,3,28151741,203981
OK,66,39,851,66,2014-10-01T17:00:00,3,28152190,203981
OK,59,44,851,59,2014-10-01T17:05:00,2,28152636,203981
OK,58,45,851,58,2014-10-01T17:10:00,0,28153083,203981
OK,64,41,851,64,2014-10-01T17:15:00,1,28153532,203981
OK,64,41,851,64,2014-10-01T17:20:00,0,28153944,203981
OK,58,45,851,58,2014-10-01T17:25:00,1,28154391,203981
OK,69,38,851,69,2014-10-01T17:30:00,4,28154833,203981
OK,69,38,851,69,2014-10-01T17:35:00,4,28155281,203981
OK,60,43,851,60,2014-10-01T17:40:00,0,28155701,203981
OK,60,43,851,60,2014-10-01T17:45:00,0,28156148,203981
OK,60,43,851,60,2014-10-01T17:50:00,0,28156597,203981
OK,82,32,851,82,2014-10-01T17:55:00,1,28157035,203981
OK,82,32,851,82,2014-10-01T18:00:00,1,28157466,203981
OK,60,43,851,60,2014-10-01T18:05:00,1,28157913,203981
OK,60,43,851,60,2014-10-01T18:10:00,1,28158357,203981
OK,60,43,851,60,2014-10-01T18:15:00,0,28158803,203981
OK,64,41,851,64,2014-10-01T18:20:00,2,28159249,203981
OK,64,41,851,64,2014-10-01T18:25:00,2,28159585,203981
OK,64,41,851,64,2014-10-01T18:30:00,0,28160033,203981
OK,52,50,851,52,2014-10-01T18:35:00,2,28160482,203981
OK,58,45,851,58,2014-10-01T18:40:00,1,28160921,203981
OK,58,45,851,58,2014-10-01T18:45:00,0,28161369,203981
OK,58,45,851,58,2014-10-01T18:50:00,0,28161786,203981
OK,59,44,851,59,2014-10-01T18:55:00,2,28162235,203981
OK,63,41,851,63,2014-10-01T19:00:00,4,28162635,203981
OK,64,41,851,64,2014-10-01T19:05:00,1,28163068,203981
OK,64,41,851,64,2014-10-01T19:10:00,0,28163516,203981
OK,75,35,851,75,2014-10-01T19:15:00,1,28163965,203981
OK,75,35,851,75,2014-10-01T19:20:00,1,28164397,203981
OK,61,43,851,61,2014-10-01T19:25:00,1,28164845,203981
OK,61,43,851,61,2014-10-01T19:30:00,1,28165271,203981
OK,56,47,851,56,2014-10-01T19:35:00,1,28165718,203981
OK,55,47,851,55,2014-10-01T19:40:00,1,28166159,203981
OK,60,43,851,60,2014-10-01T19:45:00,2,28166521,203981
OK,54,48,851,54,2014-10-01T19:50:00,2,28166970,203981
OK,54,48,851,54,2014-10-01T19:55:00,2,28167399,203981
OK,63,41,851,63,2014-10-01T20:00:00,3,28167833,203981
OK,51,51,851,51,2014-10-01T20:05:00,1,28168281,203981
OK,51,51,851,51,2014-10-01T20:10:00,1,28168726,203981
OK,51,51,851,51,2014-10-01T20:15:00,0,28169175,203981
OK,78,33,851,78,2014-10-01T20:20:00,1,28169623,203981
OK,78,33,851,78,2014-10-01T20:25:00,0,28170049,203981
OK,78,33,851,78,2014-10-01T20:30:00,0,28170494,203981
OK,78,33,851,78,2014-10-01T20:35:00,0,28170942,203981
OK,78,33,851,78,2014-10-01T20:40:00,0,28171379,203981
OK,78,33,851,78,2014-10-01T20:45:00,0,28171825,203981
OK,78,33,851,78,2014-10-01T20:50:00,0,28172273,203981
OK,78,33,851,78,2014-10-01T20:55:00,0,28172719,203981
OK,78,33,851,78,2014-10-01T21:00:00,0,28173165,203981
OK,61,43,851,61,2014-10-01T21:05:00,1,28173614,203981
OK,61,43,851,61,2014-10-01T21:10:00,1,28174055,203981
OK,61,43,851,61,2014-10-01T21:15:00,0,28174504,203981
OK,61,43,851,61,2014-10-01T21:20:00,0,28174930,203981
OK,61,43,851,61,2014-10-01T21:25:00,0,28175326,203981
OK,61,43,851,61,2014-10-01T21:30:00,0,28175775,203981
OK,61,43,851,61,2014-10-01T21:35:00,0,28176224,203981
OK,61,43,851,61,2014-10-01T21:40:00,0,28176673,203981
OK,61,43,851,61,2014-10-01T21:45:00,0,28177035,203981
OK,61,43,851,61,2014-10-01T21:50:00,0,28177469,203981
OK,166,15,851,166,2014-10-01T21:55:00,0,28177915,203981
OK,166,15,851,166,2014-10-01T22:00:00,0,28178364,203981
OK,166,15,851,166,2014-10-01T22:05:00,0,28178811,203981
OK,166,15,851,166,2014-10-01T22:10:00,0,28179246,203981
OK,166,15,851,166,2014-10-01T22:15:00,0,28179688,203981
OK,166,15,851,166,2014-10-01T22:20:00,0,28180135,203981
OK,166,15,851,166,2014-10-01T22:25:00,0,28180533,203981
OK,166,15,851,166,2014-10-01T22:30:00,0,28180982,203981
OK,166,15,851,166,2014-10-01T22:35:00,0,28181406,203981
OK,166,15,851,166,2014-10-01T22:40:00,0,28181854,203981
OK,166,15,851,166,2014-10-01T22:45:00,0,28182301,203981
OK,166,15,851,166,2014-10-01T22:50:00,0,28182750,203981
OK,166,15,851,166,2014-10-01T22:55:00,0,28183167,203981
OK,166,15,851,166,2014-10-01T23:00:00,0,28183600,203981
OK,166,15,851,166,2014-10-01T23:05:00,0,28184045,203981
OK,166,15,851,166,2014-10-01T23:10:00,0,28184494,203981
OK,166,15,851,166,2014-10-01T23:15:00,0,28184929,203981
OK,166,15,851,166,2014-10-01T23:20:00,0,28185377,203981
OK,166,15,851,166,2014-10-01T23:25:00,0,28185808,203981
OK,166,15,851,166,2014-10-01T23:30:00,0,28186200,203981
OK,166,15,851,166,2014-10-01T23:40:00,0,28187047,203981
OK,166,15,851,166,2014-10-01T23:55:00,0,28188379,203981
OK,166,15,851,166,2014-10-02T00:00:00,0,28188815,203981
OK,166,15,851,166,2014-10-02T00:05:00,0,28189264,203981
OK,166,15,851,166,2014-10-02T00:10:00,0,28189687,203981
OK,166,15,851,166,2014-10-02T00:15:00,0,28190135,203981
OK,166,15,851,166,2014-10-02T00:20:00,0,28190489,203981
OK,166,15,851,166,2014-10-02T00:25:00,0,28190937,203981
OK,166,15,851,166,2014-10-02T00:30:00,0,28191386,203981
OK,166,15,851,166,2014-10-02T00:35:00,0,28191693,203981
OK,166,15,851,166,2014-10-02T00:40:00,0,28192141,203981
OK,166,15,851,166,2014-10-02T00:45:00,0,28192574,203981
OK,166,15,851,166,2014-10-02T00:50:00,0,28193018,203981
OK,166,15,851,166,2014-10-02T00:55:00,0,28193385,203981
OK,166,15,851,166,2014-10-02T01:05:00,0,28194283,203981
OK,166,15,851,166,2014-10-02T01:15:00,0,28194732,203981
OK,166,15,851,166,2014-10-02T01:20:00,0,28195417,203981
OK,166,15,851,166,2014-10-02T01:30:00,0,28195866,203981
OK,166,15,851,166,2014-10-02T01:35:00,0,28196599,203981
OK,166,15,851,166,2014-10-02T01:40:00,0,28197023,203981
OK,166,15,851,166,2014-10-02T01:45:00,0,28197471,203981
OK,166,15,851,166,2014-10-02T01:50:00,0,28197919,203981
OK,166,15,851,166,2014-10-02T01:55:00,0,28198367,203981
OK,166,15,851,166,2014-10-02T02:00:00,0,28198816,203981
OK,166,15,851,166,2014-10-02T02:05:00,0,28199195,203981
OK,166,15,851,166,2014-10-02T02:10:00,0,28199630,203981
OK,166,15,851,166,2014-10-02T02:15:00,0,28200072,203981
OK,166,15,851,166,2014-10-02T02:20:00,0,28200515,203981
OK,166,15,851,166,2014-10-02T02:25:00,0,28200964,203981
OK,166,15,851,166,2014-10-02T02:30:00,0,28201395,203981
OK,166,15,851,166,2014-10-02T02:45:00,0,28202293,203981
OK,166,15,851,166,2014-10-02T02:50:00,0,28202735,203981
OK,166,15,851,166,2014-10-02T02:55:00,0,28203183,203981
OK,166,15,851,166,2014-10-02T03:00:00,0,28203618,203981
OK,166,15,851,166,2014-10-02T03:10:00,0,28204067,203981
OK,166,15,851,166,2014-10-02T03:25:00,0,28204516,203981
OK,166,15,851,166,2014-10-02T03:30:00,0,28204965,203981
OK,166,15,851,166,2014-10-02T03:35:00,0,28205394,203981
OK,166,15,851,166,2014-10-02T03:40:00,0,28205840,203981
OK,166,15,851,166,2014-10-02T03:45:00,0,28206223,203981
OK,166,15,851,166,2014-10-02T03:55:00,0,28207121,203981
OK,166,15,851,166,2014-10-02T04:00:00,0,28207542,203981
OK,166,15,851,166,2014-10-02T04:05:00,0,28207989,203981
OK,166,15,851,166,2014-10-02T04:10:00,0,28208418,203981
OK,166,15,851,166,2014-10-02T04:15:00,0,28208865,203981
OK,166,15,851,166,2014-10-02T04:20:00,0,28209303,203981
OK,166,15,851,166,2014-10-02T04:25:00,0,28209752,203981
OK,166,15,851,166,2014-10-02T04:30:00,0,28210175,203981
OK,166,15,851,166,2014-10-02T04:35:00,0,28210624,203981
OK,73,36,851,73,2014-10-02T04:40:00,2,28211050,203981
OK,80,32,851,80,2014-10-02T04:45:00,1,28211493,203981
OK,80,32,851,80,2014-10-02T04:50:00,0,28211871,203981
OK,71,37,851,71,2014-10-02T04:55:00,4,28212320,203981
OK,69,38,851,69,2014-10-02T05:00:00,1,28212749,203981
OK,67,39,851,67,2014-10-02T05:05:00,2,28213198,203981
OK,66,39,851,66,2014-10-02T05:10:00,1,28213636,203981
OK,66,39,851,66,2014-10-02T05:15:00,2,28214085,203981
OK,76,34,851,76,2014-10-02T05:20:00,1,28214500,203981
OK,67,39,851,67,2014-10-02T05:25:00,1,28214947,203981
OK,67,39,851,67,2014-10-02T05:30:00,0,28215364,203981
OK,132,19,851,132,2014-10-02T05:40:00,1,28215812,203981
OK,132,19,851,132,2014-10-02T05:45:00,1,28216591,203981
OK,132,19,851,132,2014-10-02T05:50:00,0,28217038,203981
OK,70,37,851,70,2014-10-02T05:55:00,8,28217487,203981
OK,77,34,851,77,2014-10-02T06:00:00,4,28217926,203981
OK,77,34,851,77,2014-10-02T06:05:00,1,28218375,203981
OK,77,34,851,77,2014-10-02T06:10:00,1,28218795,203981
OK,59,44,851,59,2014-10-02T06:15:00,4,28219244,203981
OK,64,41,851,64,2014-10-02T06:20:00,4,28219618,203981
OK,63,41,851,63,2014-10-02T06:25:00,5,28220066,203981
OK,63,41,851,63,2014-10-02T06:30:00,5,28220501,203981
OK,74,35,851,74,2014-10-02T06:35:00,3,28220949,203981
OK,87,30,851,87,2014-10-02T06:40:00,2,28221337,203981
OK,68,38,851,68,2014-10-02T06:45:00,2,28221616,203981
OK,61,43,851,61,2014-10-02T07:00:00,4,28222210,203981
OK,61,43,851,61,2014-10-02T07:05:00,2,28222659,203981
OK,63,41,851,63,2014-10-02T07:10:00,2,28223091,203981
OK,64,41,851,64,2014-10-02T07:15:00,0,28223526,203981
OK,64,41,851,64,2014-10-02T07:20:00,0,28223973,203981
OK,71,37,851,71,2014-10-02T07:25:00,5,28224328,203981
OK,61,43,851,61,2014-10-02T07:30:00,2,28224777,203981
OK,56,47,851,56,2014-10-02T07:35:00,1,28225226,203981
OK,56,47,851,56,2014-10-02T07:40:00,0,28225550,203981
OK,56,47,851,56,2014-10-02T07:50:00,0,28226438,203981
OK,49,53,851,49,2014-10-02T07:55:00,1,28226887,203981
OK,49,53,851,49,2014-10-02T08:00:00,1,28227303,203981
OK,69,38,851,69,2014-10-02T08:05:00,3,28227751,203981
OK,77,34,851,77,2014-10-02T08:10:00,0,28228111,203981
OK,64,41,851,64,2014-10-02T08:15:00,4,28228559,203981
OK,62,42,851,62,2014-10-02T08:20:00,2,28228970,203981
OK,60,43,851,60,2014-10-02T08:25:00,2,28229418,203981
OK,63,41,851,63,2014-10-02T08:30:00,1,28229769,203981
OK,57,46,851,57,2014-10-02T08:35:00,2,28230217,203981
OK,63,41,851,63,2014-10-02T08:40:00,1,28230588,203981
OK,63,41,851,63,2014-10-02T08:45:00,0,28231032,203981
OK,75,35,851,75,2014-10-02T08:50:00,2,28231455,203981
OK,75,35,851,75,2014-10-02T08:55:00,2,28231904,203981
OK,68,38,851,68,2014-10-02T09:00:00,7,28232247,203981
OK,68,38,851,68,2014-10-02T09:10:00,0,28232695,203981
OK,53,49,851,53,2014-10-02T09:15:00,1,28233144,203981
OK,53,49,851,53,2014-10-02T09:20:00,0,28233568,203981
OK,61,43,851,61,2014-10-02T09:25:00,1,28234017,203981
OK,61,43,851,61,2014-10-02T09:30:00,0,28234351,203981
OK,61,43,851,61,2014-10-02T09:35:00,0,28234799,203981
OK,61,43,851,61,2014-10-02T09:40:00,0,28235226,203981
OK,117,22,851,117,2014-10-02T09:45:00,0,28235675,203981
OK,117,22,851,117,2014-10-02T09:50:00,0,28236119,203981
OK,66,39,851,66,2014-10-02T09:55:00,3,28236565,203981
OK,93,28,851,93,2014-10-02T10:00:00,1,28236968,203981
OK,93,28,851,93,2014-10-02T10:05:00,0,28237416,203981
OK,70,37,851,70,2014-10-02T10:10:00,2,28237864,203981
OK,70,37,851,70,2014-10-02T10:15:00,2,28238312,203981
OK,62,42,851,62,2014-10-02T10:20:00,2,28238752,203981
OK,62,42,851,62,2014-10-02T10:25:00,2,28239201,203981
OK,62,42,851,62,2014-10-02T10:30:00,0,28239632,203981
OK,75,35,851,75,2014-10-02T10:35:00,2,28240080,203981
OK,67,39,851,67,2014-10-02T10:40:00,3,28240525,203981
OK,67,39,851,67,2014-10-02T10:45:00,3,28240973,203981
OK,67,39,851,67,2014-10-02T10:50:00,0,28241406,203981
OK,63,41,851,63,2014-10-02T10:55:00,1,28241853,203981
OK,63,41,851,63,2014-10-02T11:00:00,0,28242250,203981
OK,63,41,851,63,2014-10-02T11:05:00,0,28242698,203981
OK,59,44,851,59,2014-10-02T11:15:00,0,28243147,203981
OK,73,36,851,73,2014-10-02T11:20:00,3,28243910,203981
OK,69,38,851,69,2014-10-02T11:25:00,0,28244340,203981
OK,69,38,851,69,2014-10-02T11:30:00,0,28244788,203981
OK,69,38,851,69,2014-10-02T11:35:00,0,28245237,203981
OK,69,38,851,69,2014-10-02T11:40:00,0,28245644,203981
OK,69,38,851,69,2014-10-02T11:45:00,0,28246092,203981
OK,86,30,851,86,2014-10-02T11:50:00,1,28246529,203981
OK,75,35,851,75,2014-10-02T11:55:00,2,28246978,203981
OK,66,39,851,66,2014-10-02T12:00:00,2,28247424,203981
OK,67,39,851,67,2014-10-02T12:05:00,0,28247855,203981
OK,67,39,851,67,2014-10-02T12:10:00,0,28248303,203981
OK,76,34,851,76,2014-10-02T12:15:00,3,28248751,203981
OK,61,43,851,61,2014-10-02T12:20:00,1,28249178,203981
OK,61,43,851,61,2014-10-02T12:25:00,0,28249622,203981
OK,61,43,851,61,2014-10-02T12:30:00,0,28250041,203981
OK,61,43,851,61,2014-10-02T12:35:00,6,28250439,203981
OK,64,41,851,64,2014-10-02T12:45:00,4,28251219,203981
OK,81,32,851,81,2014-10-02T13:20:00,5,28251764,203981
OK,60,43,851,60,2014-10-02T13:30:00,5,28252348,203981
OK,55,47,851,55,2014-10-02T13:35:00,2,28252790,203981
OK,55,47,851,55,2014-10-02T13:40:00,0,28253207,203981
OK,59,44,851,59,2014-10-02T13:45:00,3,28253656,203981
OK,59,44,851,59,2014-10-02T13:50:00,0,28254062,203981
OK,59,44,851,59,2014-10-02T13:55:00,4,28254382,203981
OK,62,42,851,62,2014-10-02T14:10:00,3,28254959,203981
OK,61,43,851,61,2014-10-02T14:15:00,0,28255408,203981
OK,62,42,851,62,2014-10-02T14:20:00,1,28255836,203981
OK,62,42,851,62,2014-10-02T14:25:00,1,28256285,203981
OK,80,32,851,80,2014-10-02T14:30:00,5,28256713,203981
OK,80,32,851,80,2014-10-02T14:35:00,5,28257162,203981
OK,79,33,851,79,2014-10-02T14:40:00,3,28257603,203981
OK,64,41,851,64,2014-10-02T14:45:00,5,28258051,203981
OK,67,39,851,67,2014-10-02T14:50:00,3,28258484,203981
OK,70,37,851,70,2014-10-02T14:55:00,4,28258930,203981
OK,66,39,851,66,2014-10-02T15:00:00,4,28259379,203981
OK,67,39,851,67,2014-10-02T15:05:00,4,28259826,203981
OK,69,38,851,69,2014-10-02T15:10:00,3,28260259,203981
OK,61,43,851,61,2014-10-02T15:15:00,1,28260708,203981
OK,61,43,851,61,2014-10-02T15:20:00,0,28261148,203981
OK,88,29,851,88,2014-10-02T15:25:00,3,28261530,203981
OK,90,29,851,90,2014-10-02T15:30:00,2,28261960,203981
OK,62,42,851,62,2014-10-02T15:35:00,3,28262407,203981
OK,68,38,851,68,2014-10-02T15:40:00,0,28262853,203981
OK,71,37,851,71,2014-10-02T15:45:00,4,28263291,203981
OK,65,40,851,65,2014-10-02T15:50:00,1,28263732,203981
OK,65,40,851,65,2014-10-02T15:55:00,0,28264134,203981
OK,65,40,851,65,2014-10-02T16:00:00,0,28264583,203981
OK,51,51,851,51,2014-10-02T16:05:00,0,28265021,203981
OK,51,51,851,51,2014-10-02T16:10:00,0,28265461,203981